Weather History for Anchorage Merrill, AK

Change the Weather History Date:

Tuesday, July 29, 2014

  Actual Average Record
Temperature  
Mean Temperature 60 °F -  
Max Temperature 71 °F 66 °F 77 °F (2013)
Min Temperature 51 °F 52 °F 48 °F (2000)
Degree Days  
Heating Degree Days 4    
Growing Degree Days 10 (Base 50)    
Moisture  
Dew Point 51 °F    
Average Humidity 77    
Maximum Humidity 94    
Minimum Humidity 51    
Precipitation  
Precipitation 0.00 in - - ()
Sea Level Pressure  
Sea Level Pressure 29.97 in    
Wind  
Wind Speed 5 mph (NNE)    
Max Wind Speed 8 mph    
Max Gust Speed -    
Visibility 8 miles    
Events      
Averages and records for this station are not official NWS values.
T = Trace of Precipitation, MM = Missing Value Source: NWS Daily Summary

Daily Weather History Graph

Daily Weather History Graph

Search for Another Location

Airport:

Trip Planner

Search our weather history database for the weather conditions in past years. The results will help you decide how hot, cold, wet, or windy it might be!

Date:

Astronomy

Jul. 29, 2014 Rise Set
Actual Time 5:24 AM AKDT 10:45 PM AKDT
Civil Twilight 4:15 AM AKDT 11:53 PM AKDT
Nautical Twilight 2:38 AM AKDT 1:33 AM AKDT
Astronomical Twilight Sun does not rise Sun does not rise
Moon 9:17 AM AKDT (7/29) 10:47 PM AKDT (7/29)
Length of Visible Light 19h 38m
Length of Day
17h 20m
Waxing Crescent, 7% of the Moon is Illuminated
Jul 29
Waxing Crescent
Aug 3
First Quarter
Aug 10
Full
Aug 17
Last Quarter
Aug 25
New

Hourly Weather History & Observations

Time (AKDT) Temp. Dew Point Humidity Pressure Visibility Wind Dir Wind Speed Gust Speed Precip Events Conditions
12:53 AM 54.0 °F 50.0 °F 86% 29.99 in 10.0 mi NNE 4.6 mph - 0.00 in   Overcast
1:53 AM 54.0 °F 50.0 °F 86% 29.99 in 10.0 mi NNE 3.5 mph - N/A   Overcast
2:53 AM 53.1 °F 48.9 °F 86% 29.98 in 10.0 mi North 3.5 mph - N/A   Overcast
3:53 AM 52.0 °F 50.0 °F 93% 29.98 in 10.0 mi North 6.9 mph - N/A   Overcast
4:53 AM 52.0 °F 50.0 °F 93% 29.99 in 10.0 mi North 8.1 mph - N/A   Overcast
5:00 AM 51.8 °F 50.0 °F 94% 29.99 in 5.0 mi North 5.8 mph - N/A   Overcast
5:53 AM 51.1 °F 48.9 °F 92% 29.99 in 5.0 mi NNE 3.5 mph - N/A   Overcast
6:53 AM 52.0 °F 48.9 °F 89% 29.99 in 5.0 mi NE 5.8 mph - N/A   Overcast
7:00 AM 51.8 °F 48.2 °F 88% 29.98 in 4.0 mi NE 3.5 mph - N/A   Overcast
7:53 AM 52.0 °F 48.9 °F 89% 29.99 in 4.0 mi NE 4.6 mph - N/A   Overcast
8:53 AM 53.1 °F 48.9 °F 86% 29.99 in 4.0 mi ENE 3.5 mph - N/A   Overcast
9:53 AM 54.0 °F 48.9 °F 83% 29.99 in 4.0 mi ENE 3.5 mph - N/A   Haze
10:53 AM 55.0 °F 50.0 °F 83% 29.99 in 10.0 mi Variable 3.5 mph - N/A   Overcast
11:53 AM 55.9 °F 50.0 °F 80% 29.99 in 10.0 mi NE 5.8 mph - N/A   Mostly Cloudy
12:31 PM 57.2 °F 50.0 °F 77% 29.98 in 10.0 mi Calm Calm - N/A   Mostly Cloudy
12:53 PM 59.0 °F 50.0 °F 72% 29.98 in 10.0 mi North 3.5 mph - N/A   Scattered Clouds
1:53 PM 62.1 °F 50.0 °F 65% 29.98 in 10.0 mi Variable 3.5 mph - N/A   Partly Cloudy
2:53 PM 64.9 °F 51.1 °F 61% 29.96 in 10.0 mi ENE 5.8 mph - N/A   Clear
3:53 PM 70.0 °F 51.1 °F 51% 29.96 in 10.0 mi Variable 5.8 mph - N/A   Clear
4:53 PM 69.1 °F 54.0 °F 58% 29.95 in 10.0 mi West 5.8 mph - N/A   Clear
5:53 PM 70.0 °F 55.0 °F 59% 29.94 in 10.0 mi WNW 4.6 mph - N/A   Clear
6:53 PM 70.0 °F 55.9 °F 61% 29.94 in 10.0 mi NW 6.9 mph - N/A   Scattered Clouds
7:53 PM 66.0 °F 54.0 °F 65% 29.94 in 10.0 mi WNW 5.8 mph - N/A   Partly Cloudy
8:53 PM 63.0 °F 53.1 °F 70% 29.95 in 10.0 mi NW 8.1 mph - N/A   Mostly Cloudy
10:53 PM 64.0 °F 50.0 °F 60% 29.96 in 10.0 mi ESE 3.5 mph - N/A   Mostly Cloudy
11:53 PM 63.0 °F 53.1 °F 70% 29.96 in 10.0 mi Calm Calm - N/A   Mostly Cloudy